Location: Buchloe
(48.0161°N, 10.7316°E)
Time: 06:28:18
(UTC+02:00)

ISS - Pass Details

Date: 06 July 2025
Orbit: 413 x 417 km, 51.6° (Epoch: 16 July)

Event Time Altitude Azimuth Distance (km) Brightness Sun altitude
Exits shadow 01:15:22 12° 264° (W) 1,385 -1.2 -19.3°
Maximum altitude 01:18:24 60° 344° (NNW) 482 -3.3 -19.3°
Drops below altitude 10° 01:21:44 10° 66° (ENE) 1,494 -0.7 -19.3°
Sets 01:23:51 0° 70° (ENE) 2,360 0.3 -19.3°
